Tracking 21082 objects as of 6-Aug-2020
HD Live streaming from Space Station
objects crossing your sky now

COSMOS 2088

Track COSMOS 2088 now!
10-day predictions
COSMOS 2088 is classified as:


NORAD ID: 20720
Int'l Code: 1990-066A
Perigee: 1,490.8 km
Apogee: 1,530.4 km
Inclination: 73.6 °
Period: 116.1 minutes
Semi major axis: 7881 km
RCS: 11.4565 m2 (large)
Launch date: July 30, 1990
Source: Commonwealth of Independent States (former USSR) (CIS)
Launch site: PLESETSK MISSILE AND SPACE COMPLEX (PKMTR)
aabbcc
Your satellite tracking list
Your tracking list is empty




NASA's NSSDC Master Catalog

Two Line Element Set (TLE):
1 20720U 90066A   20218.47660282 -.00000029 +00000-0 -84055-4 0  9999
2 20720 073.6001 021.5663 0025061 082.0095 285.3873 12.40741856359507
Source of the keplerian elements: AFSPC